Wahpeton, MN

12:58 AM CDT on October 23, 2019 (GMT -0500)
Stern

Weather History for KBWP - September, 2019

Change the Weather History Date:

Saturday, September 21, 2019

  Actual Average (WUND) Record (WUND)
Temperature  
Mean Temperature 69 °F -  
Max Temperature 78 °F - - (-1)
Min Temperature 60 °F - - (-1)
Cooling Degree Days 4    
Growing Degree Days 19 (Base 50)    
Moisture  
Dew Point 60 °F    
Average Humidity 68    
Maximum Humidity 88    
Minimum Humidity 42    
Precipitation  
Precipitation 0.00 in - - ()
Sea Level Pressure  
Sea Level Pressure 29.69 in    
Wind  
Wind Speed 14 mph ()    
Max Wind Speed 23 mph    
Max Gust Speed 31 mph    
Visibility 9.9 miles    
Events      
Averages and records for this station are not official NWS values.
T = Trace of Precipitation, MM = Missing Value Source: Averaged Metar Reports

Daily Weather History Graph

Daily Weather History Graph

Search for Another Location

Airport or City:

Astronomy

Sep. 21, 2019 Rise Set
Actual Time 7:11 AM CDT 7:26 PM CDT
Civil Twilight 6:41 AM CDT 7:56 PM CDT
Nautical Twilight 6:06 AM CDT 8:31 PM CDT
Astronomical Twilight 5:30 AM CDT 9:07 PM CDT
Moon 11:42 PM CDT (9/21) 2:41 PM CDT (9/21)
Length of Visible Light 13h 14m
Length of Day
12h 14m
Waning Gibbous, 54% of the Moon is Illuminated
Sep 21
Waning Gibbous
Sep 21
Last Quarter
Sep 28
New
Oct 5
First Quarter
Oct 13
Full

Hourly Weather History & Observations

Time (CDT) Temp. Dew Point Humidity Pressure Visibility Wind Dir Wind Speed Gust Speed Precip Events Conditions
12:15 AM 73.4 °F 64.4 °F 73% 29.73 in 10.0 mi SSE 16.1 mph 24.2 mph N/A   Unknown
12:35 AM 73.4 °F 64.4 °F 73% 29.73 in 10.0 mi SSE 17.3 mph 26.5 mph N/A   Unknown
12:55 AM 73.4 °F 64.4 °F 73% 29.74 in 10.0 mi SSE 19.6 mph 26.5 mph N/A   Unknown
1:15 AM 73.4 °F 64.4 °F 73% 29.74 in 10.0 mi South 18.4 mph 23.0 mph N/A   Unknown
1:35 AM 73.4 °F 64.4 °F 73% 29.73 in 10.0 mi SSE 19.6 mph 26.5 mph N/A   Unknown
1:55 AM 73.4 °F 64.4 °F 73% 29.72 in 10.0 mi SSE 18.4 mph 27.6 mph N/A   Unknown
2:15 AM 73.4 °F 64.4 °F 73% 29.71 in 10.0 mi South 20.7 mph 27.6 mph N/A   Unknown
2:35 AM 73.4 °F 64.4 °F 73% 29.70 in 10.0 mi SSE 19.6 mph 25.3 mph N/A   Unknown
2:55 AM 71.6 °F 64.4 °F 78% 29.70 in 10.0 mi South 15.0 mph - N/A   Unknown
3:15 AM 71.6 °F 62.6 °F 73% 29.68 in 10.0 mi South 17.3 mph 23.0 mph N/A   Unknown
3:35 AM 71.6 °F 62.6 °F 73% 29.67 in 10.0 mi South 17.3 mph 21.9 mph N/A   Unknown
3:55 AM 71.6 °F 62.6 °F 73% 29.66 in 10.0 mi South 15.0 mph - N/A   Unknown
4:15 AM 71.6 °F 62.6 °F 73% 29.64 in 10.0 mi SSE 15.0 mph 21.9 mph N/A   Unknown
4:35 AM 71.6 °F 62.6 °F 73% 29.64 in 10.0 mi SSE 18.4 mph 25.3 mph N/A   Unknown
4:55 AM 71.6 °F 62.6 °F 73% 29.64 in 10.0 mi South 15.0 mph 19.6 mph N/A   Unknown
5:15 AM 69.8 °F 62.6 °F 78% 29.65 in 10.0 mi South 15.0 mph - N/A   Unknown
5:35 AM 71.6 °F 62.6 °F 73% 29.65 in 10.0 mi South 13.8 mph 21.9 mph N/A   Unknown
5:55 AM 71.6 °F 64.4 °F 78% 29.66 in 10.0 mi SSW 17.3 mph 23.0 mph N/A   Unknown
6:15 AM 71.6 °F 64.4 °F 78% 29.68 in 10.0 mi SSW 16.1 mph 20.7 mph N/A   Unknown
6:35 AM 69.8 °F 64.4 °F 83% 29.69 in 4.0 mi SSW 10.4 mph 25.3 mph N/A   Unknown
6:55 AM 68.0 °F 64.4 °F 88% 29.64 in 7.0 mi NW 9.2 mph - N/A   Unknown
7:15 AM 68.0 °F 64.4 °F 88% 29.58 in 10.0 mi ESE 12.7 mph - N/A   Unknown
7:35 AM 68.0 °F 64.4 °F 88% 29.58 in 10.0 mi SE 5.8 mph - N/A   Unknown
7:55 AM 68.0 °F 64.4 °F 88% 29.63 in 10.0 mi South 10.4 mph - N/A   Unknown
8:35 AM 66.2 °F 62.6 °F 88% 29.65 in 10.0 mi SSW 10.4 mph - N/A   Unknown
8:55 AM 66.2 °F 62.6 °F 88% 29.64 in 10.0 mi SSW 6.9 mph - N/A   Unknown
9:15 AM 66.2 °F 62.6 °F 88% 29.65 in 10.0 mi South 8.1 mph - N/A   Unknown
9:35 AM 68.0 °F 62.6 °F 83% 29.65 in 10.0 mi South 6.9 mph - N/A   Unknown
9:55 AM 68.0 °F 62.6 °F 83% 29.63 in 10.0 mi South 11.5 mph - N/A   Unknown
10:15 AM 71.6 °F 64.4 °F 78% 29.62 in 10.0 mi South 12.7 mph 16.1 mph N/A   Unknown
10:35 AM 71.6 °F 64.4 °F 78% 29.63 in 10.0 mi South 12.7 mph - N/A   Unknown
10:55 AM 73.4 °F 64.4 °F 73% 29.63 in 10.0 mi SSW 13.8 mph 20.7 mph N/A   Unknown
11:15 AM 73.4 °F 62.6 °F 69% 29.64 in 10.0 mi SW 16.1 mph - N/A   Unknown
11:35 AM 77.0 °F 62.6 °F 61% 29.64 in 10.0 mi WSW 19.6 mph 26.5 mph N/A   Unknown
11:55 AM 77.0 °F 62.6 °F 61% 29.64 in 10.0 mi West 19.6 mph 25.3 mph N/A   Unknown
12:15 PM 75.2 °F 59.0 °F 57% 29.64 in 10.0 mi WSW 18.4 mph 24.2 mph N/A   Unknown
12:35 PM 77.0 °F 60.8 °F 57% 29.65 in 10.0 mi West 19.6 mph 26.5 mph N/A   Unknown
12:55 PM 77.0 °F 59.0 °F 54% 29.65 in 10.0 mi WSW 13.8 mph 20.7 mph N/A   Unknown
1:15 PM 77.0 °F 59.0 °F 54% 29.65 in 10.0 mi WSW 15.0 mph - N/A   Unknown
1:35 PM 77.0 °F 59.0 °F 54% 29.66 in 10.0 mi WSW 15.0 mph - N/A   Unknown
1:55 PM 77.0 °F 59.0 °F 54% 29.66 in 10.0 mi West 15.0 mph 18.4 mph N/A   Unknown
2:15 PM 77.0 °F 59.0 °F 54% 29.66 in 10.0 mi West 15.0 mph - N/A   Unknown
2:35 PM 78.8 °F 59.0 °F 51% 29.66 in 10.0 mi SW 15.0 mph - N/A   Unknown
2:55 PM 78.8 °F 59.0 °F 51% 29.66 in 10.0 mi West 13.8 mph 21.9 mph N/A   Unknown
3:15 PM 78.8 °F 57.2 °F 47% 29.66 in 10.0 mi WSW 12.7 mph - N/A   Unknown
3:35 PM 78.8 °F 55.4 °F 44% 29.66 in 10.0 mi WSW 17.3 mph - N/A   Unknown
3:55 PM 78.8 °F 57.2 °F 47% 29.66 in 10.0 mi WSW 16.1 mph 21.9 mph N/A   Unknown
4:15 PM 78.8 °F 57.2 °F 47% 29.66 in 10.0 mi WSW 13.8 mph - N/A   Unknown
4:35 PM 78.8 °F 55.4 °F 44% 29.66 in 10.0 mi WSW 15.0 mph 20.7 mph N/A   Unknown
4:55 PM 78.8 °F 55.4 °F 44% 29.66 in 10.0 mi WSW 12.7 mph - N/A   Unknown
5:15 PM 78.8 °F 53.6 °F 42% 29.66 in 10.0 mi WSW 15.0 mph 23.0 mph N/A   Unknown
5:35 PM 78.8 °F 53.6 °F 42% 29.66 in 10.0 mi WSW 20.7 mph 25.3 mph N/A   Unknown
5:55 PM 75.2 °F 57.2 °F 53% 29.68 in 10.0 mi WSW 21.9 mph 31.1 mph N/A   Unknown
6:15 PM 73.4 °F 55.4 °F 53% 29.69 in 10.0 mi WSW 23.0 mph 31.1 mph N/A   Unknown
6:35 PM 71.6 °F 55.4 °F 57% 29.70 in 10.0 mi West 17.3 mph 28.8 mph N/A   Unknown
6:55 PM 71.6 °F 55.4 °F 57% 29.71 in 10.0 mi West 13.8 mph - N/A   Unknown
7:15 PM 69.8 °F 55.4 °F 60% 29.72 in 10.0 mi West 13.8 mph 17.3 mph N/A   Unknown
7:35 PM 68.0 °F 55.4 °F 64% 29.73 in 10.0 mi West 10.4 mph - N/A   Unknown
7:55 PM 66.2 °F 55.4 °F 68% 29.75 in 10.0 mi WSW 11.5 mph - N/A   Unknown
8:15 PM 66.2 °F 53.6 °F 64% 29.76 in 10.0 mi WSW 12.7 mph 17.3 mph N/A   Unknown
8:35 PM 64.4 °F 53.6 °F 68% 29.77 in 10.0 mi West 10.4 mph - N/A   Unknown
8:55 PM 64.4 °F 53.6 °F 68% 29.78 in 10.0 mi WSW 9.2 mph - N/A   Unknown
9:15 PM 62.6 °F 53.6 °F 72% 29.78 in 10.0 mi WSW 8.1 mph - N/A   Unknown
9:35 PM 62.6 °F 53.6 °F 72% 29.78 in 10.0 mi WSW 6.9 mph - N/A   Unknown
9:55 PM 60.8 °F 55.4 °F 82% 29.79 in 10.0 mi WSW 8.1 mph - N/A   Unknown
10:15 PM 62.6 °F 53.6 °F 72% 29.79 in 10.0 mi West 9.2 mph - N/A   Unknown
10:35 PM 60.8 °F 53.6 °F 77% 29.79 in 10.0 mi WSW 10.4 mph - N/A   Unknown
10:55 PM 60.8 °F 55.4 °F 82% 29.79 in 10.0 mi West 9.2 mph - N/A   Unknown
11:15 PM 60.8 °F 53.6 °F 77% 29.80 in 10.0 mi WSW 8.1 mph - N/A   Unknown
11:35 PM 60.8 °F 53.6 °F 77% 29.80 in 10.0 mi West 10.4 mph - N/A   Unknown
11:55 PM 60.8 °F 53.6 °F 77% 29.81 in 10.0 mi West 10.4 mph - N/A   Unknown